owner,sensor,date,latitude,longitude,air_temperature,qcFlag 
COMPS,ioos:station:USF.COMPS:ARP:1,2009-12-01T00:00:00Z,28.4330,-82.6670,19.35,1111122 
COMPS,ioos:station:USF.COMPS:ARP:1,2009-12-01T00:06:00Z,28.4330,-82.6670,19.32,1111122 
COMPS,ioos:station:USF.COMPS:ARP:1,2009-12-01T00:12:00Z,28.4330,-82.6670,19.3,1111122 
COMPS,ioos:station:USF.COMPS:ARP:1,2009-12-01T00:18:00Z,28.4330,-82.6670,19.3,1111122 
COMPS,ioos:station:USF.COMPS:ARP:1,2009-12-01T00:24:00Z,28.4330,-82.6670,19.3,1111122 
COMPS,ioos:station:USF.COMPS:ARP:1,2009-12-01T00:30:00Z,28.4330,-82.6670,19.3,1111122 
COMPS,ioos:station:USF.COMPS:ARP:1,2009-12-01T00:36:00Z,28.4330,-82.6670,19.3,1111122 
COMPS,ioos:station:USF.COMPS:ARP:1,2009-12-01T00:42:00Z,28.4330,-82.6670,19.2,1111122 
COMPS,ioos:station:USF.COMPS:ARP:1,2009-12-01T00:48:00Z,28.4330,-82.6670,19.16,1111122 
COMPS,ioos:station:USF.COMPS:ARP:1,2009-12-01T00:54:00Z,28.4330,-82.6670,19.11,1111122 
COMPS,ioos:station:USF.COMPS:ARP:1,2009-12-01T01:00:00Z,28.4330,-82.6670,18.98,1111122 
COMPS,ioos:station:USF.COMPS:ARP:1,2009-12-01T01:06:00Z,28.4330,-82.6670,18.86,1111122 
COMPS,ioos:station:USF.COMPS:ARP:1,2009-12-01T01:12:00Z,28.4330,-82.6670,18.84,1111122 
COMPS,ioos:station:USF.COMPS:ARP:1,2009-12-01T01:18:00Z,28.4330,-82.6670,18.84,1111122 
COMPS,ioos:station:USF.COMPS:ARP:1,2009-12-01T01:24:00Z,28.4330,-82.6670,18.69,1111122 
COMPS,ioos:station:USF.COMPS:ARP:1,2009-12-01T01:30:00Z,28.4330,-82.6670,18.41,1111122 
COMPS,ioos:station:USF.COMPS:ARP:1,2009-12-01T01:36:00Z,28.4330,-82.6670,18.21,1111122 
COMPS,ioos:station:USF.COMPS:ARP:1,2009-12-01T01:42:00Z,28.4330,-82.6670,17.96,1111122 
COMPS,ioos:station:USF.COMPS:ARP:1,2009-12-01T01:48:00Z,28.4330,-82.6670,17.8,1111122 
COMPS,ioos:station:USF.COMPS:ARP:1,2009-12-01T01:54:00Z,28.4330,-82.6670,17.83,1111122 
COMPS,ioos:station:USF.COMPS:ARP:1,2009-12-01T02:00:00Z,28.4330,-82.6670,17.66,1111122 
COMPS,ioos:station:USF.COMPS:ARP:1,2009-12-01T02:06:00Z,28.4330,-82.6670,17.57,1111122 
COMPS,ioos:station:USF.COMPS:ARP:1,2009-12-01T02:12:00Z,28.4330,-82.6670,17.42,1111122 
COMPS,ioos:station:USF.COMPS:ARP:1,2009-12-01T02:18:00Z,28.4330,-82.6670,17.3,1111122 
COMPS,ioos:station:USF.COMPS:ARP:1,2009-12-01T02:24:00Z,28.4330,-82.6670,17.15,1111122 
COMPS,ioos:station:USF.COMPS:ARP:1,2009-12-01T02:30:00Z,28.4330,-82.6670,17.29,1111122 
COMPS,ioos:station:USF.COMPS:ARP:1,2009-12-01T02:36:00Z,28.4330,-82.6670,17.69,1111122 
COMPS,ioos:station:USF.COMPS:ARP:1,2009-12-01T02:42:00Z,28.4330,-82.6670,17.71,1111122 
COMPS,ioos:station:USF.COMPS:ARP:1,2009-12-01T02:48:00Z,28.4330,-82.6670,17.8,1111122 
COMPS,ioos:station:USF.COMPS:ARP:1,2009-12-01T02:54:00Z,28.4330,-82.6670,17.9,1111122 
COMPS,ioos:station:USF.COMPS:ARP:1,2009-12-01T03:00:00Z,28.4330,-82.6670,17.56,1111122 
COMPS,ioos:station:USF.COMPS:ARP:1,2009-12-01T03:06:00Z,28.4330,-82.6670,17.53,1111122 
COMPS,ioos:station:USF.COMPS:ARP:1,2009-12-01T03:12:00Z,28.4330,-82.6670,17.7,1111122 
COMPS,ioos:station:USF.COMPS:ARP:1,2009-12-01T03:18:00Z,28.4330,-82.6670,17.62,1111122 
COMPS,ioos:station:USF.COMPS:ARP:1,2009-12-01T03:24:00Z,28.4330,-82.6670,17.54,1111122 
COMPS,ioos:station:USF.COMPS:ARP:1,2009-12-01T03:30:00Z,28.4330,-82.6670,17.25,1111122 
COMPS,ioos:station:USF.COMPS:ARP:1,2009-12-01T03:36:00Z,28.4330,-82.6670,16.91,1111122 
COMPS,ioos:station:USF.COMPS:ARP:1,2009-12-01T03:42:00Z,28.4330,-82.6670,16.69,1111122 
COMPS,ioos:station:USF.COMPS:ARP:1,2009-12-01T03:48:00Z,28.4330,-82.6670,16.52,1111122 
COMPS,ioos:station:USF.COMPS:ARP:1,2009-12-01T03:54:00Z,28.4330,-82.6670,16.63,1111122 
COMPS,ioos:station:USF.COMPS:ARP:1,2009-12-01T04:00:00Z,28.4330,-82.6670,16.71,1111122 
COMPS,ioos:station:USF.COMPS:ARP:1,2009-12-01T04:06:00Z,28.4330,-82.6670,16.53,1111122 
COMPS,ioos:station:USF.COMPS:ARP:1,2009-12-01T04:12:00Z,28.4330,-82.6670,16.69,1111122 
COMPS,ioos:station:USF.COMPS:ARP:1,2009-12-01T04:18:00Z,28.4330,-82.6670,17.33,1111122 
COMPS,ioos:station:USF.COMPS:ARP:1,2009-12-01T04:24:00Z,28.4330,-82.6670,17.58,1111122 
COMPS,ioos:station:USF.COMPS:ARP:1,2009-12-01T04:30:00Z,28.4330,-82.6670,17.63,1111122 
COMPS,ioos:station:USF.COMPS:ARP:1,2009-12-01T04:36:00Z,28.4330,-82.6670,17.73,1111122 
COMPS,ioos:station:USF.COMPS:ARP:1,2009-12-01T04:42:00Z,28.4330,-82.6670,18.0,1111122 
COMPS,ioos:station:USF.COMPS:ARP:1,2009-12-01T04:48:00Z,28.4330,-82.6670,18.03,1111122 
COMPS,ioos:station:USF.COMPS:ARP:1,2009-12-01T04:54:00Z,28.4330,-82.6670,18.16,1111122 
COMPS,ioos:station:USF.COMPS:ARP:1,2009-12-01T05:00:00Z,28.4330,-82.6670,18.1,1111122 
COMPS,ioos:station:USF.COMPS:ARP:1,2009-12-01T05:06:00Z,28.4330,-82.6670,18.21,1111122 
COMPS,ioos:station:USF.COMPS:ARP:1,2009-12-01T05:12:00Z,28.4330,-82.6670,18.25,1111122 
COMPS,ioos:station:USF.COMPS:ARP:1,2009-12-01T05:18:00Z,28.4330,-82.6670,18.31,1111122 
COMPS,ioos:station:USF.COMPS:ARP:1,2009-12-01T05:24:00Z,28.4330,-82.6670,18.39,1111122 
COMPS,ioos:station:USF.COMPS:ARP:1,2009-12-01T05:30:00Z,28.4330,-82.6670,18.32,1111122 
COMPS,ioos:station:USF.COMPS:ARP:1,2009-12-01T05:36:00Z,28.4330,-82.6670,18.02,1111122 
COMPS,ioos:station:USF.COMPS:ARP:1,2009-12-01T05:42:00Z,28.4330,-82.6670,17.89,1111122 
COMPS,ioos:station:USF.COMPS:ARP:1,2009-12-01T05:48:00Z,28.4330,-82.6670,17.48,1111122 
COMPS,ioos:station:USF.COMPS:ARP:1,2009-12-01T05:54:00Z,28.4330,-82.6670,17.12,1111122 
COMPS,ioos:station:USF.COMPS:ARP:1,2009-12-01T06:00:00Z,28.4330,-82.6670,16.96,1111122 
COMPS,ioos:station:USF.COMPS:ARP:1,2009-12-01T06:06:00Z,28.4330,-82.6670,17.2,1111122 
COMPS,ioos:station:USF.COMPS:ARP:1,2009-12-01T06:12:00Z,28.4330,-82.6670,17.42,1111122 
COMPS,ioos:station:USF.COMPS:ARP:1,2009-12-01T06:18:00Z,28.4330,-82.6670,17.56,1111122 
COMPS,ioos:station:USF.COMPS:ARP:1,2009-12-01T06:24:00Z,28.4330,-82.6670,17.54,1111122 
COMPS,ioos:station:USF.COMPS:ARP:1,2009-12-01T06:30:00Z,28.4330,-82.6670,17.25,1111122 
COMPS,ioos:station:USF.COMPS:ARP:1,2009-12-01T06:36:00Z,28.4330,-82.6670,16.85,1111122 
COMPS,ioos:station:USF.COMPS:ARP:1,2009-12-01T06:42:00Z,28.4330,-82.6670,16.9,1111122 
COMPS,ioos:station:USF.COMPS:ARP:1,2009-12-01T06:48:00Z,28.4330,-82.6670,16.96,1111122 
COMPS,ioos:station:USF.COMPS:ARP:1,2009-12-01T06:54:00Z,28.4330,-82.6670,17.16,1111122 
COMPS,ioos:station:USF.COMPS:ARP:1,2009-12-01T07:00:00Z,28.4330,-82.6670,17.07,1111122 
COMPS,ioos:station:USF.COMPS:ARP:1,2009-12-01T07:06:00Z,28.4330,-82.6670,16.9,1111122 
COMPS,ioos:station:USF.COMPS:ARP:1,2009-12-01T07:12:00Z,28.4330,-82.6670,16.55,1111122 
COMPS,ioos:station:USF.COMPS:ARP:1,2009-12-01T07:18:00Z,28.4330,-82.6670,16.27,1111122 
COMPS,ioos:station:USF.COMPS:ARP:1,2009-12-01T07:24:00Z,28.4330,-82.6670,16.25,1111122 
COMPS,ioos:station:USF.COMPS:ARP:1,2009-12-01T07:30:00Z,28.4330,-82.6670,16.32,1111122 
COMPS,ioos:station:USF.COMPS:ARP:1,2009-12-01T07:36:00Z,28.4330,-82.6670,16.67,1111122 
COMPS,ioos:station:USF.COMPS:ARP:1,2009-12-01T07:42:00Z,28.4330,-82.6670,16.17,1111122 
COMPS,ioos:station:USF.COMPS:ARP:1,2009-12-01T07:48:00Z,28.4330,-82.6670,16.07,1111122 
COMPS,ioos:station:USF.COMPS:ARP:1,2009-12-01T07:54:00Z,28.4330,-82.6670,16.08,1111122 
COMPS,ioos:station:USF.COMPS:ARP:1,2009-12-01T08:00:00Z,28.4330,-82.6670,15.89,1111122 
COMPS,ioos:station:USF.COMPS:ARP:1,2009-12-01T08:06:00Z,28.4330,-82.6670,15.86,1111122 
COMPS,ioos:station:USF.COMPS:ARP:1,2009-12-01T08:12:00Z,28.4330,-82.6670,15.93,1111122 
COMPS,ioos:station:USF.COMPS:ARP:1,2009-12-01T08:18:00Z,28.4330,-82.6670,15.8,1111122 
COMPS,ioos:station:USF.COMPS:ARP:1,2009-12-01T08:24:00Z,28.4330,-82.6670,15.77,1111122 
COMPS,ioos:station:USF.COMPS:ARP:1,2009-12-01T08:30:00Z,28.4330,-82.6670,15.69,1111122 
COMPS,ioos:station:USF.COMPS:ARP:1,2009-12-01T08:36:00Z,28.4330,-82.6670,15.66,1111122 
COMPS,ioos:station:USF.COMPS:ARP:1,2009-12-01T08:42:00Z,28.4330,-82.6670,15.86,1111122 
COMPS,ioos:station:USF.COMPS:ARP:1,2009-12-01T08:48:00Z,28.4330,-82.6670,15.74,1111122 
COMPS,ioos:station:USF.COMPS:ARP:1,2009-12-01T08:54:00Z,28.4330,-82.6670,15.72,1111122 
COMPS,ioos:station:USF.COMPS:ARP:1,2009-12-01T09:00:00Z,28.4330,-82.6670,15.7,1111122 
COMPS,ioos:station:USF.COMPS:ARP:1,2009-12-01T09:06:00Z,28.4330,-82.6670,15.99,1111122 
COMPS,ioos:station:USF.COMPS:ARP:1,2009-12-01T09:12:00Z,28.4330,-82.6670,16.08,1111122 
COMPS,ioos:station:USF.COMPS:ARP:1,2009-12-01T09:18:00Z,28.4330,-82.6670,15.74,1111122 
COMPS,ioos:station:USF.COMPS:ARP:1,2009-12-01T09:24:00Z,28.4330,-82.6670,15.72,1111122 
COMPS,ioos:station:USF.COMPS:ARP:1,2009-12-01T09:30:00Z,28.4330,-82.6670,15.73,1111122 
COMPS,ioos:station:USF.COMPS:ARP:1,2009-12-01T09:36:00Z,28.4330,-82.6670,15.63,1111122 
COMPS,ioos:station:USF.COMPS:ARP:1,2009-12-01T09:42:00Z,28.4330,-82.6670,15.6,1111122 
COMPS,ioos:station:USF.COMPS:ARP:1,2009-12-01T09:48:00Z,28.4330,-82.6670,15.58,1111122 
COMPS,ioos:station:USF.COMPS:ARP:1,2009-12-01T09:54:00Z,28.4330,-82.6670,15.59,1111122 
COMPS,ioos:station:USF.COMPS:ARP:1,2009-12-01T10:00:00Z,28.4330,-82.6670,15.65,1111122 
COMPS,ioos:station:USF.COMPS:ARP:1,2009-12-01T10:06:00Z,28.4330,-82.6670,15.55,1111122 
COMPS,ioos:station:USF.COMPS:ARP:1,2009-12-01T10:12:00Z,28.4330,-82.6670,15.62,1111122 
COMPS,ioos:station:USF.COMPS:ARP:1,2009-12-01T10:18:00Z,28.4330,-82.6670,15.65,1111122 
COMPS,ioos:station:USF.COMPS:ARP:1,2009-12-01T10:24:00Z,28.4330,-82.6670,15.65,1111122 
COMPS,ioos:station:USF.COMPS:ARP:1,2009-12-01T10:30:00Z,28.4330,-82.6670,15.65,1111122 
COMPS,ioos:station:USF.COMPS:ARP:1,2009-12-01T10:36:00Z,28.4330,-82.6670,15.6,1111122 
COMPS,ioos:station:USF.COMPS:ARP:1,2009-12-01T10:42:00Z,28.4330,-82.6670,15.69,1111122 
COMPS,ioos:station:USF.COMPS:ARP:1,2009-12-01T10:48:00Z,28.4330,-82.6670,15.66,1111122 
COMPS,ioos:station:USF.COMPS:ARP:1,2009-12-01T10:54:00Z,28.4330,-82.6670,15.7,1111122 
COMPS,ioos:station:USF.COMPS:ARP:1,2009-12-01T11:00:00Z,28.4330,-82.6670,15.78,1111122 
COMPS,ioos:station:USF.COMPS:ARP:1,2009-12-01T11:06:00Z,28.4330,-82.6670,15.8,1111122 
COMPS,ioos:station:USF.COMPS:ARP:1,2009-12-01T11:12:00Z,28.4330,-82.6670,15.8,1111122 
COMPS,ioos:station:USF.COMPS:ARP:1,2009-12-01T11:18:00Z,28.4330,-82.6670,15.8,1111122 
COMPS,ioos:station:USF.COMPS:ARP:1,2009-12-01T11:24:00Z,28.4330,-82.6670,15.88,1111122 
COMPS,ioos:station:USF.COMPS:ARP:1,2009-12-01T11:30:00Z,28.4330,-82.6670,15.86,1111122 
COMPS,ioos:station:USF.COMPS:ARP:1,2009-12-01T11:36:00Z,28.4330,-82.6670,15.88,1111122 
COMPS,ioos:station:USF.COMPS:ARP:1,2009-12-01T11:42:00Z,28.4330,-82.6670,15.93,1111122 
COMPS,ioos:station:USF.COMPS:ARP:1,2009-12-01T11:48:00Z,28.4330,-82.6670,15.93,1111122 
COMPS,ioos:station:USF.COMPS:ARP:1,2009-12-01T11:54:00Z,28.4330,-82.6670,16.07,1111122 
COMPS,ioos:station:USF.COMPS:ARP:1,2009-12-01T12:00:00Z,28.4330,-82.6670,16.07,1111122 
COMPS,ioos:station:USF.COMPS:ARP:1,2009-12-01T12:06:00Z,28.4330,-82.6670,16.02,1111122 
COMPS,ioos:station:USF.COMPS:ARP:1,2009-12-01T12:12:00Z,28.4330,-82.6670,15.95,1111122 
COMPS,ioos:station:USF.COMPS:ARP:1,2009-12-01T12:18:00Z,28.4330,-82.6670,16.05,1111122 
COMPS,ioos:station:USF.COMPS:ARP:1,2009-12-01T12:24:00Z,28.4330,-82.6670,16.05,1111122 
COMPS,ioos:station:USF.COMPS:ARP:1,2009-12-01T12:30:00Z,28.4330,-82.6670,15.95,1111122 
COMPS,ioos:station:USF.COMPS:ARP:1,2009-12-01T12:36:00Z,28.4330,-82.6670,15.94,1111122 
COMPS,ioos:station:USF.COMPS:ARP:1,2009-12-01T12:42:00Z,28.4330,-82.6670,16.1,1111122 
COMPS,ioos:station:USF.COMPS:ARP:1,2009-12-01T12:48:00Z,28.4330,-82.6670,16.21,1111122 
COMPS,ioos:station:USF.COMPS:ARP:1,2009-12-01T12:54:00Z,28.4330,-82.6670,16.28,1111122 
COMPS,ioos:station:USF.COMPS:ARP:1,2009-12-01T13:00:00Z,28.4330,-82.6670,16.36,1111122 
COMPS,ioos:station:USF.COMPS:ARP:1,2009-12-01T13:06:00Z,28.4330,-82.6670,16.52,1111122 
COMPS,ioos:station:USF.COMPS:ARP:1,2009-12-01T13:12:00Z,28.4330,-82.6670,16.71,1111122 
COMPS,ioos:station:USF.COMPS:ARP:1,2009-12-01T13:18:00Z,28.4330,-82.6670,16.91,1111122 
COMPS,ioos:station:USF.COMPS:ARP:1,2009-12-01T13:24:00Z,28.4330,-82.6670,17.11,1111122 
COMPS,ioos:station:USF.COMPS:ARP:1,2009-12-01T13:30:00Z,28.4330,-82.6670,17.29,1111122 
COMPS,ioos:station:USF.COMPS:ARP:1,2009-12-01T13:36:00Z,28.4330,-82.6670,17.55,1111122 
COMPS,ioos:station:USF.COMPS:ARP:1,2009-12-01T13:42:00Z,28.4330,-82.6670,17.77,1111122 
COMPS,ioos:station:USF.COMPS:ARP:1,2009-12-01T13:48:00Z,28.4330,-82.6670,18.07,1111122 
COMPS,ioos:station:USF.COMPS:ARP:1,2009-12-01T13:54:00Z,28.4330,-82.6670,18.35,1111122 
COMPS,ioos:station:USF.COMPS:ARP:1,2009-12-01T14:00:00Z,28.4330,-82.6670,18.26,1111122 
COMPS,ioos:station:USF.COMPS:ARP:1,2009-12-01T14:06:00Z,28.4330,-82.6670,18.35,1111122 
COMPS,ioos:station:USF.COMPS:ARP:1,2009-12-01T14:12:00Z,28.4330,-82.6670,18.42,1111122 
COMPS,ioos:station:USF.COMPS:ARP:1,2009-12-01T14:18:00Z,28.4330,-82.6670,18.52,1111122 
COMPS,ioos:station:USF.COMPS:ARP:1,2009-12-01T14:24:00Z,28.4330,-82.6670,18.51,1111122 
COMPS,ioos:station:USF.COMPS:ARP:1,2009-12-01T14:30:00Z,28.4330,-82.6670,18.49,1111122 
COMPS,ioos:station:USF.COMPS:ARP:1,2009-12-01T14:36:00Z,28.4330,-82.6670,18.44,1111122 
COMPS,ioos:station:USF.COMPS:ARP:1,2009-12-01T14:42:00Z,28.4330,-82.6670,18.49,1111122 
COMPS,ioos:station:USF.COMPS:ARP:1,2009-12-01T14:48:00Z,28.4330,-82.6670,18.67,1111122 
COMPS,ioos:station:USF.COMPS:ARP:1,2009-12-01T14:54:00Z,28.4330,-82.6670,18.78,1111122 
COMPS,ioos:station:USF.COMPS:ARP:1,2009-12-01T15:00:00Z,28.4330,-82.6670,18.85,1111122 
COMPS,ioos:station:USF.COMPS:ARP:1,2009-12-01T15:06:00Z,28.4330,-82.6670,19.03,1111122 
COMPS,ioos:station:USF.COMPS:ARP:1,2009-12-01T15:12:00Z,28.4330,-82.6670,18.88,1111122 
COMPS,ioos:station:USF.COMPS:ARP:1,2009-12-01T15:18:00Z,28.4330,-82.6670,18.91,1111122 
COMPS,ioos:station:USF.COMPS:ARP:1,2009-12-01T15:24:00Z,28.4330,-82.6670,19.05,1111122 
COMPS,ioos:station:USF.COMPS:ARP:1,2009-12-01T15:30:00Z,28.4330,-82.6670,19.27,1111122 
COMPS,ioos:station:USF.COMPS:ARP:1,2009-12-01T15:36:00Z,28.4330,-82.6670,19.44,1111122 
COMPS,ioos:station:USF.COMPS:ARP:1,2009-12-01T15:42:00Z,28.4330,-82.6670,19.54,1111122 
COMPS,ioos:station:USF.COMPS:ARP:1,2009-12-01T15:48:00Z,28.4330,-82.6670,19.78,1111122 
COMPS,ioos:station:USF.COMPS:ARP:1,2009-12-01T15:54:00Z,28.4330,-82.6670,19.88,1111122 
COMPS,ioos:station:USF.COMPS:ARP:1,2009-12-01T16:00:00Z,28.4330,-82.6670,19.94,1111122 
COMPS,ioos:station:USF.COMPS:ARP:1,2009-12-01T16:06:00Z,28.4330,-82.6670,20.06,1111122 
COMPS,ioos:station:USF.COMPS:ARP:1,2009-12-01T16:12:00Z,28.4330,-82.6670,20.17,1111122 
COMPS,ioos:station:USF.COMPS:ARP:1,2009-12-01T16:18:00Z,28.4330,-82.6670,20.38,1111122 
COMPS,ioos:station:USF.COMPS:ARP:1,2009-12-01T16:24:00Z,28.4330,-82.6670,20.64,1111122 
COMPS,ioos:station:USF.COMPS:ARP:1,2009-12-01T16:30:00Z,28.4330,-82.6670,20.81,1111122 
COMPS,ioos:station:USF.COMPS:ARP:1,2009-12-01T16:36:00Z,28.4330,-82.6670,21.0,1111122 
COMPS,ioos:station:USF.COMPS:ARP:1,2009-12-01T16:42:00Z,28.4330,-82.6670,21.21,1111122 
COMPS,ioos:station:USF.COMPS:ARP:1,2009-12-01T16:48:00Z,28.4330,-82.6670,21.4,1111122 
COMPS,ioos:station:USF.COMPS:ARP:1,2009-12-01T16:54:00Z,28.4330,-82.6670,21.76,1111122 
COMPS,ioos:station:USF.COMPS:ARP:1,2009-12-01T17:00:00Z,28.4330,-82.6670,21.88,1111122 
COMPS,ioos:station:USF.COMPS:ARP:1,2009-12-01T17:06:00Z,28.4330,-82.6670,22.0,1111122 
COMPS,ioos:station:USF.COMPS:ARP:1,2009-12-01T17:12:00Z,28.4330,-82.6670,22.11,1111122 
COMPS,ioos:station:USF.COMPS:ARP:1,2009-12-01T17:18:00Z,28.4330,-82.6670,22.39,1111122 
COMPS,ioos:station:USF.COMPS:ARP:1,2009-12-01T17:24:00Z,28.4330,-82.6670,22.77,1111122 
COMPS,ioos:station:USF.COMPS:ARP:1,2009-12-01T17:30:00Z,28.4330,-82.6670,23.07,1111122 
COMPS,ioos:station:USF.COMPS:ARP:1,2009-12-01T17:36:00Z,28.4330,-82.6670,23.13,1111122 
COMPS,ioos:station:USF.COMPS:ARP:1,2009-12-01T17:42:00Z,28.4330,-82.6670,23.5,1111122 
COMPS,ioos:station:USF.COMPS:ARP:1,2009-12-01T17:48:00Z,28.4330,-82.6670,23.83,1111122 
COMPS,ioos:station:USF.COMPS:ARP:1,2009-12-01T17:54:00Z,28.4330,-82.6670,23.87,1111122 
COMPS,ioos:station:USF.COMPS:ARP:1,2009-12-01T18:00:00Z,28.4330,-82.6670,23.85,1111122 
COMPS,ioos:station:USF.COMPS:ARP:1,2009-12-01T18:06:00Z,28.4330,-82.6670,23.77,1111122 
COMPS,ioos:station:USF.COMPS:ARP:1,2009-12-01T18:12:00Z,28.4330,-82.6670,23.97,1111122 
COMPS,ioos:station:USF.COMPS:ARP:1,2009-12-01T18:18:00Z,28.4330,-82.6670,23.99,1111122 
COMPS,ioos:station:USF.COMPS:ARP:1,2009-12-01T18:24:00Z,28.4330,-82.6670,24.09,1111122 
COMPS,ioos:station:USF.COMPS:ARP:1,2009-12-01T18:30:00Z,28.4330,-82.6670,24.02,1111122 
COMPS,ioos:station:USF.COMPS:ARP:1,2009-12-01T18:36:00Z,28.4330,-82.6670,24.11,1111122 
COMPS,ioos:station:USF.COMPS:ARP:1,2009-12-01T18:42:00Z,28.4330,-82.6670,24.21,1111122 
COMPS,ioos:station:USF.COMPS:ARP:1,2009-12-01T18:48:00Z,28.4330,-82.6670,24.39,1111122 
COMPS,ioos:station:USF.COMPS:ARP:1,2009-12-01T18:54:00Z,28.4330,-82.6670,24.34,1111122 
COMPS,ioos:station:USF.COMPS:ARP:1,2009-12-01T19:00:00Z,28.4330,-82.6670,24.59,1111122 
COMPS,ioos:station:USF.COMPS:ARP:1,2009-12-01T19:06:00Z,28.4330,-82.6670,24.51,1111122 
COMPS,ioos:station:USF.COMPS:ARP:1,2009-12-01T19:12:00Z,28.4330,-82.6670,24.39,1111122 
COMPS,ioos:station:USF.COMPS:ARP:1,2009-12-01T19:18:00Z,28.4330,-82.6670,24.35,1111122 
COMPS,ioos:station:USF.COMPS:ARP:1,2009-12-01T19:24:00Z,28.4330,-82.6670,24.33,1111122 
COMPS,ioos:station:USF.COMPS:ARP:1,2009-12-01T19:30:00Z,28.4330,-82.6670,24.45,1111122 
COMPS,ioos:station:USF.COMPS:ARP:1,2009-12-01T19:36:00Z,28.4330,-82.6670,24.46,1111122 
COMPS,ioos:station:USF.COMPS:ARP:1,2009-12-01T19:42:00Z,28.4330,-82.6670,24.62,1111122 
COMPS,ioos:station:USF.COMPS:ARP:1,2009-12-01T19:48:00Z,28.4330,-82.6670,24.63,1111122 
COMPS,ioos:station:USF.COMPS:ARP:1,2009-12-01T19:54:00Z,28.4330,-82.6670,24.4,1111122 
COMPS,ioos:station:USF.COMPS:ARP:1,2009-12-01T20:00:00Z,28.4330,-82.6670,24.23,1111122 
COMPS,ioos:station:USF.COMPS:ARP:1,2009-12-01T20:06:00Z,28.4330,-82.6670,24.2,1111122 
COMPS,ioos:station:USF.COMPS:ARP:1,2009-12-01T20:12:00Z,28.4330,-82.6670,24.19,1111122 
COMPS,ioos:station:USF.COMPS:ARP:1,2009-12-01T20:18:00Z,28.4330,-82.6670,24.19,1111122 
COMPS,ioos:station:USF.COMPS:ARP:1,2009-12-01T20:24:00Z,28.4330,-82.6670,24.18,1111122 
COMPS,ioos:station:USF.COMPS:ARP:1,2009-12-01T20:30:00Z,28.4330,-82.6670,24.14,1111122 
COMPS,ioos:station:USF.COMPS:ARP:1,2009-12-01T20:36:00Z,28.4330,-82.6670,24.04,1111122 
COMPS,ioos:station:USF.COMPS:ARP:1,2009-12-01T20:42:00Z,28.4330,-82.6670,23.91,1111122 
COMPS,ioos:station:USF.COMPS:ARP:1,2009-12-01T20:48:00Z,28.4330,-82.6670,23.91,1111122 
COMPS,ioos:station:USF.COMPS:ARP:1,2009-12-01T20:54:00Z,28.4330,-82.6670,24.0,1111122 
COMPS,ioos:station:USF.COMPS:ARP:1,2009-12-01T21:00:00Z,28.4330,-82.6670,24.05,1111122 
COMPS,ioos:station:USF.COMPS:ARP:1,2009-12-01T21:06:00Z,28.4330,-82.6670,23.93,1111122 
COMPS,ioos:station:USF.COMPS:ARP:1,2009-12-01T21:12:00Z,28.4330,-82.6670,23.87,1111122 
COMPS,ioos:station:USF.COMPS:ARP:1,2009-12-01T21:18:00Z,28.4330,-82.6670,23.78,1111122 
COMPS,ioos:station:USF.COMPS:ARP:1,2009-12-01T21:24:00Z,28.4330,-82.6670,23.78,1111122 
COMPS,ioos:station:USF.COMPS:ARP:1,2009-12-01T21:30:00Z,28.4330,-82.6670,23.72,1111122 
COMPS,ioos:station:USF.COMPS:ARP:1,2009-12-01T21:36:00Z,28.4330,-82.6670,23.65,1111122 
COMPS,ioos:station:USF.COMPS:ARP:1,2009-12-01T21:42:00Z,28.4330,-82.6670,23.57,1111122 
COMPS,ioos:station:USF.COMPS:ARP:1,2009-12-01T21:48:00Z,28.4330,-82.6670,23.49,1111122 
COMPS,ioos:station:USF.COMPS:ARP:1,2009-12-01T21:54:00Z,28.4330,-82.6670,23.43,1111122 
COMPS,ioos:station:USF.COMPS:ARP:1,2009-12-01T22:00:00Z,28.4330,-82.6670,23.29,1111122 
COMPS,ioos:station:USF.COMPS:ARP:1,2009-12-01T22:06:00Z,28.4330,-82.6670,23.21,1111122 
COMPS,ioos:station:USF.COMPS:ARP:1,2009-12-01T22:12:00Z,28.4330,-82.6670,23.16,1111122 
COMPS,ioos:station:USF.COMPS:ARP:1,2009-12-01T22:18:00Z,28.4330,-82.6670,23.05,1111122 
COMPS,ioos:station:USF.COMPS:ARP:1,2009-12-01T22:24:00Z,28.4330,-82.6670,22.94,1111122 
COMPS,ioos:station:USF.COMPS:ARP:1,2009-12-01T22:30:00Z,28.4330,-82.6670,22.83,1111122 
COMPS,ioos:station:USF.COMPS:ARP:1,2009-12-01T22:36:00Z,28.4330,-82.6670,22.7,1111122 
COMPS,ioos:station:USF.COMPS:ARP:1,2009-12-01T22:42:00Z,28.4330,-82.6670,22.63,1111122 
COMPS,ioos:station:USF.COMPS:ARP:1,2009-12-01T22:48:00Z,28.4330,-82.6670,22.49,1111122 
COMPS,ioos:station:USF.COMPS:ARP:1,2009-12-01T22:54:00Z,28.4330,-82.6670,22.38,1111122 
COMPS,ioos:station:USF.COMPS:ARP:1,2009-12-01T23:00:00Z,28.4330,-82.6670,22.3,1111122 
COMPS,ioos:station:USF.COMPS:ARP:1,2009-12-01T23:06:00Z,28.4330,-82.6670,22.25,1111122 
COMPS,ioos:station:USF.COMPS:ARP:1,2009-12-01T23:12:00Z,28.4330,-82.6670,22.18,1111122 
COMPS,ioos:station:USF.COMPS:ARP:1,2009-12-01T23:18:00Z,28.4330,-82.6670,22.03,1111122 
COMPS,ioos:station:USF.COMPS:ARP:1,2009-12-01T23:24:00Z,28.4330,-82.6670,22.01,1111122 
COMPS,ioos:station:USF.COMPS:ARP:1,2009-12-01T23:30:00Z,28.4330,-82.6670,21.9,1111122 
COMPS,ioos:station:USF.COMPS:ARP:1,2009-12-01T23:36:00Z,28.4330,-82.6670,21.96,1111122 
COMPS,ioos:station:USF.COMPS:ARP:1,2009-12-01T23:42:00Z,28.4330,-82.6670,22.01,1111122 
COMPS,ioos:station:USF.COMPS:ARP:1,2009-12-01T23:48:00Z,28.4330,-82.6670,21.95,1111122 
COMPS,ioos:station:USF.COMPS:ARP:1,2009-12-01T23:54:00Z,28.4330,-82.6670,21.94,1111122 
COMPS,ioos:station:USF.COMPS:ARP:1,2009-12-02T00:00:00Z,28.4330,-82.6670,21.89,1111122 
COMPS,ioos:station:USF.COMPS:ARP:1,2009-12-02T00:06:00Z,28.4330,-82.6670,21.89,1111122 
COMPS,ioos:station:USF.COMPS:ARP:1,2009-12-02T00:12:00Z,28.4330,-82.6670,21.85,1111122 
COMPS,ioos:station:USF.COMPS:ARP:1,2009-12-02T00:18:00Z,28.4330,-82.6670,21.77,1111122 
COMPS,ioos:station:USF.COMPS:ARP:1,2009-12-02T00:24:00Z,28.4330,-82.6670,21.77,1111122 
COMPS,ioos:station:USF.COMPS:ARP:1,2009-12-02T00:30:00Z,28.4330,-82.6670,21.71,1111122 
COMPS,ioos:station:USF.COMPS:ARP:1,2009-12-02T00:36:00Z,28.4330,-82.6670,21.62,1111122 
COMPS,ioos:station:USF.COMPS:ARP:1,2009-12-02T00:42:00Z,28.4330,-82.6670,21.48,1111122 
COMPS,ioos:station:USF.COMPS:ARP:1,2009-12-02T00:48:00Z,28.4330,-82.6670,21.39,1111122 
COMPS,ioos:station:USF.COMPS:ARP:1,2009-12-02T00:54:00Z,28.4330,-82.6670,21.39,1111122 
COMPS,ioos:station:USF.COMPS:ARP:1,2009-12-02T01:00:00Z,28.4330,-82.6670,21.21,1111122 
COMPS,ioos:station:USF.COMPS:ARP:1,2009-12-02T01:06:00Z,28.4330,-82.6670,21.11,1111122 
COMPS,ioos:station:USF.COMPS:ARP:1,2009-12-02T01:12:00Z,28.4330,-82.6670,21.04,1111122 
COMPS,ioos:station:USF.COMPS:ARP:1,2009-12-02T01:18:00Z,28.4330,-82.6670,20.94,1111122 
COMPS,ioos:station:USF.COMPS:ARP:1,2009-12-02T01:24:00Z,28.4330,-82.6670,20.89,1111122 
COMPS,ioos:station:USF.COMPS:ARP:1,2009-12-02T01:30:00Z,28.4330,-82.6670,20.8,1111122 
COMPS,ioos:station:USF.COMPS:ARP:1,2009-12-02T01:36:00Z,28.4330,-82.6670,20.71,1111122 
COMPS,ioos:station:USF.COMPS:ARP:1,2009-12-02T01:42:00Z,28.4330,-82.6670,20.66,1111122 
COMPS,ioos:station:USF.COMPS:ARP:1,2009-12-02T01:48:00Z,28.4330,-82.6670,20.66,1111122 
COMPS,ioos:station:USF.COMPS:ARP:1,2009-12-02T01:54:00Z,28.4330,-82.6670,20.58,1111122 
COMPS,ioos:station:USF.COMPS:ARP:1,2009-12-02T02:00:00Z,28.4330,-82.6670,20.48,1111122 
COMPS,ioos:station:USF.COMPS:ARP:1,2009-12-02T02:06:00Z,28.4330,-82.6670,20.4,1111122 
COMPS,ioos:station:USF.COMPS:ARP:1,2009-12-02T02:12:00Z,28.4330,-82.6670,20.39,1111122 
COMPS,ioos:station:USF.COMPS:ARP:1,2009-12-02T02:18:00Z,28.4330,-82.6670,20.39,1111122 
COMPS,ioos:station:USF.COMPS:ARP:1,2009-12-02T02:24:00Z,28.4330,-82.6670,20.33,1111122 
COMPS,ioos:station:USF.COMPS:ARP:1,2009-12-02T02:30:00Z,28.4330,-82.6670,20.26,1111122 
COMPS,ioos:station:USF.COMPS:ARP:1,2009-12-02T02:36:00Z,28.4330,-82.6670,20.25,1111122 
COMPS,ioos:station:USF.COMPS:ARP:1,2009-12-02T02:42:00Z,28.4330,-82.6670,20.24,1111122 
COMPS,ioos:station:USF.COMPS:ARP:1,2009-12-02T02:48:00Z,28.4330,-82.6670,20.16,1111122 
COMPS,ioos:station:USF.COMPS:ARP:1,2009-12-02T02:54:00Z,28.4330,-82.6670,20.2,1111122 
COMPS,ioos:station:USF.COMPS:ARP:1,2009-12-02T03:00:00Z,28.4330,-82.6670,20.07,1111122 
COMPS,ioos:station:USF.COMPS:ARP:1,2009-12-02T03:06:00Z,28.4330,-82.6670,20.02,1111122 